EW1541 Weather Reports


Display with metric or nautical units.
time (UTC)temp
F
wind
direction
speed
MPH
gust
MPH
rain 1hr
in
rain 24hr
in
rain mn
in
humidity
%
barometer
mb
20260507133058 0 360 5.0 10.0 0.00 0.00 0.00 1017.2
20260507131552 0 338 6.0 11.0 0.00 0.00 0.00 1017.1
20260507130048 0 355 7.0 14.0 0.00 0.00 0.00 1017.2
20260507124544 0 360 5.0 12.0 0.00 0.00 0.00 1017.2
20260507123040 0 349 8.0 12.0 0.00 0.00 0.00 1017.2
20260507121534 0 348 9.0 12.0 0.00 0.00 0.00 1017.1
20260507120030 0 344 9.0 12.0 0.00 0.00 0.00 1017.1
20260507114525 0 344 7.0 13.0 0.00 0.00 0.00 1017.1
20260507113023 0 343 9.0 15.0 0.00 0.00 0.00 1017.1
20260507111525 0 175 4.0 8.0 0.00 0.00 0.00 1017.1
20260507110013 0 344 5.0 13.0 0.00 0.00 0.00 1016.9
20260507104510 0 188 1.0 6.0 0.00 0.00 0.00 1016.8
20260507103004 0 187 2.0 10.0 0.00 0.00 0.00 1016.7
20260507101600 0 190 9.0 15.0 0.00 0.00 0.00 1016.6
20260507100055 0 185 8.0 12.0 0.00 0.00 0.00 1016.5
20260507094551 0 181 8.0 12.0 0.00 0.00 0.00 1016.5
20260507093048 0 203 2.0 10.0 0.00 0.00 0.00 1016.5
20260507091543 0 175 5.0 11.0 0.00 0.00 0.00 1016.4
20260507090038 0 173 6.0 10.0 0.00 0.00 0.00 1016.4
20260507084537 0 182 7.0 13.0 0.00 0.00 0.00 1016.3
20260507083029 0 188 4.0 11.0 0.00 0.00 0.00 1016.1
20260507081526 0 184 5.0 13.0 0.00 0.00 0.00 1015.9
20260507080019 0 176 7.0 11.0 0.00 0.00 0.00 1015.8
20260507074515 0 175 5.0 13.0 0.00 0.00 0.00 1015.7
20260507073011 0 178 6.0 9.0 0.00 0.00 0.00 1015.7
20260507071507 0 157 0.0 6.0 0.00 0.00 0.00 1015.6
20260507070003 0 157 1.0 7.0 0.00 0.00 0.00 1015.5
20260507064558 0 150 4.0 7.0 0.00 0.00 0.00 1015.4
20260507063054 0 149 3.0 7.0 0.00 0.00 0.00 1015.4
20260507061549 0 119 4.0 6.0 0.00 0.00 0.00 1015.3
20260507060056 0 116 0.0 5.0 0.00 0.00 0.00 1015.2
20260507054547 0 116 2.0 6.0 0.00 0.00 0.00 1015.3
20260507053038 0 116 4.0 6.0 0.00 0.00 0.00 1015.1
20260507051531 0 116 5.0 7.0 0.00 0.00 0.00 1015.0
20260507050026 0 90 6.0 8.0 0.00 0.00 0.00 1014.9
20260507044543 0 335 4.0 10.0 0.00 0.00 0.00 1014.7
20260507043018 0 355 6.0 11.0 0.00 0.00 0.00 1014.6
20260507041513 0 330 5.0 9.0 0.00 0.00 0.00 1014.6
20260507040009 0 171 0.0 0.0 0.00 0.00 0.00 1014.4
20260507034505 0 171 1.0 9.0 0.00 0.00 0.00 1014.1
20260507033001 0 169 0.0 8.0 0.00 0.00 0.00 1014.1
20260507031556 0 169 2.0 5.0 0.00 0.00 0.00 1014.0
20260507030059 0 169 0.0 2.0 0.00 0.00 0.00 1014.1
20260507024554 0 169 0.0 4.0 0.00 0.00 0.00 1014.0
20260507023045 0 169 0.0 4.0 0.00 0.00 0.00 1014.0
20260507021538 0 169 5.0 8.0 0.00 0.00 0.00 1013.9
20260507020043 0 169 4.0 8.0 0.00 0.00 0.00 1013.7
20260507014534 0 169 6.0 11.0 0.00 0.00 0.00 1013.6
20260507013025 0 163 6.0 9.0 0.00 0.00 0.00 1013.6
20260507011521 0 16 0.0 4.0 0.00 0.00 0.00 1013.4
20260507010022 0 16 0.0 2.0 0.00 0.00 0.00 1013.2
20260507004512 0 16 3.0 8.0 0.00 0.00 0.00 1013.2
20260507003010 0 313 0.0 5.0 0.00 0.00 0.00 1013.2
20260507001506 0 322 5.0 8.0 0.00 0.00 0.00 1013.1
20260507000059 0 319 1.0 8.0 0.00 0.00 0.00 1013.0
20260506234556 0 360 6.0 12.0 0.00 0.00 0.00 1012.8
20260506233051 0 294 4.0 6.0 0.00 0.00 0.00 1012.7
20260506231546 0 294 2.0 10.0 0.00 0.00 0.00 1012.7
20260506230042 0 276 5.0 8.0 0.00 0.00 0.00 1012.5
20260506224547 0 252 1.0 6.0 0.00 0.00 0.00 1012.6
20260506223033 0 252 4.0 12.0 0.00 0.00 0.00 1012.6
20260506221528 0 180 0.0 2.0 0.00 0.00 0.00 1012.5
20260506220025 0 180 0.0 6.0 0.00 0.00 0.00 1012.4
20260506214523 0 180 6.0 9.0 0.00 0.00 0.00 1012.3
20260506213022 0 180 1.0 6.0 0.00 0.00 0.00 1012.4
20260506211517 0 180 4.0 11.0 0.00 0.00 0.00 1012.3
20260506210117 0 184 6.0 13.0 0.00 0.00 0.00 1012.1
20260506204516 0 184 6.0 10.0 0.00 0.00 0.00 1012.2
20260506203015 0 182 6.0 13.0 0.00 0.00 0.00 1012.2
20260506201510 0 192 7.0 10.0 0.00 0.00 0.00 1012.0
20260506200006 0 194 0.0 6.0 0.00 0.00 0.00 1012.0
20260506194502 0 194 0.0 7.0 0.00 0.00 0.00 1011.9
20260506193059 0 194 0.0 4.0 0.00 0.00 0.00 1011.8
20260506191556 0 194 0.0 4.0 0.00 0.00 0.00 1011.7
20260506190056 0 194 0.0 5.0 0.00 0.00 0.00 1011.7
20260506184550 0 193 0.0 7.0 0.00 0.00 0.00 1011.6
20260506183046 0 194 0.0 6.0 0.00 0.00 0.00 1011.7
20260506181546 0 194 2.0 9.0 0.00 0.00 0.00 1011.6
20260506180042 0 241 1.0 8.0 0.00 0.00 0.00 1011.6
20260506174534 0 240 0.0 5.0 0.00 0.02 0.00 1011.5
20260506173028 0 240 2.0 6.0 0.00 0.02 0.00 1011.5
20260506171536 0 240 3.0 6.0 0.00 0.02 0.00 1011.5
20260506170035 0 248 4.0 8.0 0.00 0.02 0.00 1011.6
20260506164531 0 290 1.0 10.0 0.00 0.02 0.00 1011.7
20260506163025 0 321 3.0 7.0 0.00 0.02 0.00 1011.6
20260506161527 0 320 1.0 8.0 0.00 0.02 0.00 1011.7
20260506160025 0 5 6.0 12.0 0.00 0.02 0.00 1011.7
20260506154524 0 336 8.0 14.0 0.00 0.02 0.00 1011.6
20260506153023 0 350 7.0 15.0 0.00 0.02 0.00 1011.8
20260506151531 0 323 6.0 14.0 0.00 0.02 0.00 1011.8
20260506150023 0 326 8.0 12.0 0.00 0.02 0.00 1011.8
20260506144521 0 338 3.0 10.0 0.00 0.02 0.00 1011.8
20260506143021 0 348 6.0 10.0 0.00 0.02 0.00 1011.8
20260506141520 0 312 3.0 11.0 0.00 0.02 0.00 1011.9
20260506140026 0 171 8.0 11.0 0.00 0.02 0.00 1011.9
20260506134516 0 178 8.0 15.0 0.00 0.02 0.00 1012.0